Flag for Finland Weather past 2 weeks in Rovaniemi, Finland

Now
34 °F

Partly sunny.


Feels Like: 25 °F
Forecast: 28 / 37 °F
Wind: 12 mph from Southwest

Location: Rovaniemi Airport


UV Index: 0 (Low)

Visibility: N/A


Pressure: 29.62 "Hg

Humidity: 87%

Dew point: 30 °F

Location of RovaniemiLocation

Historic Weather in Rovaniemi

°F

Rovaniemi temperature yesterday

Maximum temperature yesterday: 37 °F (at 12:50 PM)
Minimum temperature yesterday: 25 °F (at 6:20 AM)
Average temperature yesterday: 32 °F

Past Weeks' High & Low Weather Summary

 TemperatureHumidityPressure
High39 °F (Apr 12, 12:50 PM)100% (Apr 3, 5:20 AM)30.21 "Hg (Apr 3, 5:20 AM)
Low14 °F (Apr 8, 5:50 AM)32% (Apr 9, 6:50 PM)29.09 "Hg (Apr 14, 1:50 AM)
Average29 °F71%29.69 "Hg
* Reported Apr 2 6:20 AM — Apr 17 6:20 AM, Rovaniemi, Weather by CustomWeather, © 2014

Note: Actual official high and low records may vary slightly from our data, if they occured in-between our weather recording intervals... More about our weather records

Advertising

Historic Weather Conditions — Data for Previous 24 hours

 ConditionsComfort  
Time TempWeatherWind HumidityBarometerVisibility
6:20 AM
Apr 17
34 °FClear.13 mph87%29.62 "Hg10 mi
5:50 AM32 °FClear.16 mph93%29.65 "Hg10 mi
5:20 AM34 °FClear.18 mph87%29.65 "Hg10 mi
4:50 AM32 °FClear.17 mph93%29.65 "Hg10 mi
4:20 AM32 °FClear.15 mph93%29.65 "Hg10 mi
3:50 AM32 °FClear.16 mph93%29.65 "Hg10 mi
3:20 AM32 °FClear.13 mph93%29.68 "Hg10 mi
2:50 AM34 °FClear.16 mph87%29.68 "Hg10 mi
2:20 AM34 °FPassing clouds.15 mph87%29.68 "HgN/A
1:50 AM34 °FPartly cloudy.14 mph87%29.71 "HgN/A
1:20 AM34 °FPassing clouds.15 mph87%29.71 "HgN/A
12:50 AM34 °FOvercast.12 mph87%29.74 "HgN/A
12:20 AM34 °FOvercast.10 mph87%29.74 "HgN/A
11:50 PM
Apr 16
34 °FMostly cloudy.8 mph87%29.74 "HgN/A
11:20 PM32 °FPartly cloudy.9 mph93%29.77 "HgN/A
10:50 PM34 °FMostly cloudy.8 mph87%29.77 "HgN/A
10:20 PM34 °FMostly cloudy.10 mph87%29.80 "HgN/A
9:50 PM34 °FPartly sunny.14 mph81%29.80 "HgN/A
9:20 PM34 °FBroken clouds.13 mph81%29.83 "HgN/A
8:50 PM34 °FBroken clouds.9 mph75%29.83 "HgN/A
8:20 PM34 °FSunny.12 mph70%29.86 "Hg10 mi
7:50 PM34 °FSunny.12 mph65%29.86 "Hg10 mi
7:20 PM34 °FSunny.13 mph65%29.89 "Hg10 mi
6:50 PM34 °FSunny.15 mph65%29.89 "Hg10 mi
6:20 PM34 °FSunny.21 mph65%29.89 "Hg10 mi
5:50 PM34 °FSunny.18 mph65%29.92 "Hg10 mi
5:20 PM36 °FSunny.17 mph56%29.92 "Hg10 mi
4:50 PM36 °FSunny.20 mph52%29.92 "Hg10 mi
4:20 PM37 °FSunny.18 mph48%29.95 "Hg10 mi
3:50 PM37 °FSunny.17 mph48%29.95 "Hg10 mi
3:20 PM37 °FSunny.17 mph45%29.95 "Hg10 mi
2:50 PM37 °FSunny.15 mph48%29.98 "Hg10 mi
2:20 PM37 °FSunny.14 mph48%29.98 "Hg10 mi
1:50 PM37 °FSunny.13 mph45%29.98 "Hg10 mi
1:20 PM37 °FSunny.10 mph48%29.98 "Hg10 mi
12:50 PM37 °FSunny.12 mph48%29.98 "Hg10 mi
12:20 PM36 °FSunny.10 mph56%30.01 "Hg10 mi
11:50 AM36 °FPassing clouds.7 mph52%30.01 "HgN/A
11:20 AM36 °FPassing clouds.6 mph56%30.01 "HgN/A
10:50 AM34 °FPassing clouds.6 mph65%30.01 "HgN/A
10:20 AM32 °FPassing clouds.6 mph75%30.04 "HgN/A
9:50 AM34 °FSunny.2 mph65%30.04 "Hg10 mi
9:20 AM32 °FPassing clouds.3 mph69%30.04 "HgN/A
8:50 AM28 °FSunny.5 mph80%30.04 "Hg10 mi
8:20 AM28 °FSunny.7 mph80%30.04 "Hg10 mi
7:50 AM27 °FSunny.8 mph86%30.01 "Hg10 mi
7:20 AM27 °FSunny.8 mph86%30.01 "Hg10 mi
Weather by CustomWeather, © 2014

See weather overview